PICSAT (43132 NORAD) Tracking and Keplerian Element Data

This shows tracking and keplerian element data for the satellite.

Feedback or suggestion? Click here.




ElementValue
Catalog43132
NamePICSAT
Epoch Orbit6546
Epoch Day77.48476785
Epoch Year2019
RAAN145.4517
Inclination97.4982
Eccentricity0.0009013
Argument of Perigee209.5302
Mean Anonmoly150.5427
Mean Motion15.23309238
Decay Rate1.49E-05
L11 43132U 18004X 19077.48476785 .00001490 00000-0 65806-4 0 9992
L22 43132 97.4982 145.4517 0009013 209.5302 150.5427 15.23309238 65466

Live tracking and technical data element details for PICSAT (NORAD 43132). PICSAT can be tracked NOW for your location showing map with azimuth and elevation plus other details from your city location.

Track the satellite on the map from your city or location and see movement details for azimuth, elevation, latitude, longitude, range, height, and movement on the map or in text.







IsCatalogInMostPopularTable: catalog: 43132, numindb: 269
Update: records affected: 1



GetName: 43132 PICSAT

Hit Count: updated at: Wed, 20 Mar 2019 04:45:56 GMT